Location: Pedholt
(56.0260°N, 10.2097°E)
Time: 04:02:35
(UTC+00:00)

SR - Pass Details

Date: 28 July 2021
Orbit: 581 x 874 km, 66.7° (Epoch: 21 September)

Event Time Altitude Azimuth Distance (km) Brightness Sun altitude
Rises 10:32:45 0° 287° (WNW) 3,352 ? 51.5°
Reaches altitude 10° 10:35:41 10° 300° (WNW) 2,374 ? 51.7°
Maximum altitude 10:40:11 26° 356° (N) 1,479 ? 51.9°
Drops below altitude 10° 10:44:24 10° 52° (NE) 2,211 ? 52.0°
Sets 10:47:02 0° 66° (ENE) 3,076 ? 52.1°
